CW2732 Weather Reports


Display with metric or nautical units.
time (UTC)temp
F
wind
direction
speed
MPH
gust
MPH
rain 1hr
in
rain 24hr
in
rain mn
in
humidity
%
barometer
mb
20260507133332 68 62 8.0 17.0 0.00 0.00 0.00 64 1011.1
20260507132349 69 128 8.0 17.0 0.00 0.00 0.00 61 1011.2
20260507131339 70 130 5.0 17.0 0.00 0.00 0.00 60 1011.2
20260507130353 70 90 9.0 17.0 0.00 0.00 0.00 60 1011.4
20260507125336 70 66 10.0 17.0 0.00 0.00 0.00 59 1011.7
20260507124337 73 56 9.0 17.0 0.00 0.00 0.00 55 1011.6
20260507123335 72 44 7.0 17.0 0.00 0.00 0.00 59 1011.6
20260507122356 71 117 8.0 17.0 0.00 0.00 0.00 59 1011.7
20260507121345 71 88 8.0 17.0 0.00 0.00 0.00 59 1011.8
20260507120404 70 61 6.0 17.0 0.00 0.00 0.00 59 1012.0
20260507115333 70 73 9.0 17.0 0.00 0.00 0.00 59 1012.0
20260507114339 70 78 8.0 17.0 0.00 0.00 0.00 60 1012.0
20260507113356 69 90 6.0 17.0 0.00 0.00 0.00 62 1011.9
20260507112333 70 71 8.0 17.0 0.00 0.00 0.00 61 1012.1
20260507111413 70 331 5.0 17.0 0.00 0.00 0.00 60 1012.1
20260507110343 69 74 8.0 17.0 0.00 0.00 0.00 61 1012.2
20260507105334 69 56 7.0 17.0 0.00 0.00 0.00 63 1012.4
20260507104335 68 43 9.0 17.0 0.00 0.00 0.00 65 1012.5
20260507103338 68 62 7.0 17.0 0.00 0.00 0.00 66 1012.5
20260507102336 68 94 9.0 17.0 0.00 0.00 0.00 67 1012.5
20260507101352 68 90 6.0 16.0 0.00 0.00 0.00 66 1012.5
20260507100340 68 15 9.0 16.0 0.00 0.00 0.00 66 1012.6
20260507095333 68 80 5.0 15.0 0.00 0.00 0.00 68 1012.5
20260507094351 68 77 5.0 15.0 0.00 0.00 0.00 68 1012.6
20260507093338 68 44 8.0 14.0 0.00 0.00 0.00 68 1012.6
20260507092337 68 44 3.0 14.0 0.00 0.00 0.00 68 1012.7
20260507091335 68 78 8.0 14.0 0.00 0.00 0.00 67 1012.8
20260507090341 68 79 8.0 14.0 0.00 0.00 0.00 66 1012.6
20260507085329 68 76 8.0 13.0 0.00 0.00 0.00 68 1012.7
20260507084348 68 78 7.0 13.0 0.00 0.00 0.00 67 1012.8
20260507083344 67 74 6.0 13.0 0.00 0.00 0.00 68 1012.6
20260507082404 67 115 7.0 13.0 0.00 0.00 0.00 69 1012.5
20260507081334 67 48 4.0 13.0 0.00 0.00 0.00 67 1012.7
20260507080354 68 38 6.0 12.0 0.00 0.00 0.00 65 1012.7
20260507075347 68 39 6.0 12.0 0.00 0.00 0.00 64 1012.7
20260507074338 68 74 5.0 10.0 0.00 0.00 0.00 65 1012.3
20260507073352 68 60 4.0 10.0 0.00 0.00 0.00 64 1012.3
20260507072349 68 103 3.0 9.0 0.00 0.00 0.00 64 1012.2
20260507071337 68 21 3.0 9.0 0.00 0.00 0.00 64 1012.2
20260507070356 67 33 2.0 9.0 0.00 0.00 0.00 68 1012.0
20260507065347 65 320 2.0 9.0 0.00 0.00 0.00 70 1011.9
20260507064346 64 336 2.0 8.0 0.00 0.00 0.00 72 1012.1
20260507063345 63 330 2.0 8.0 0.00 0.00 0.00 74 1011.9
20260507062351 62 355 1.0 8.0 0.00 0.00 0.00 75 1011.9
20260507061349 62 340 3.0 8.0 0.00 0.00 0.00 76 1011.9
20260507060346 62 263 3.0 8.0 0.00 0.00 0.00 76 1011.9
20260507055352 61 332 2.0 8.0 0.00 0.00 0.00 77 1011.9
20260507054409 61 344 2.0 5.0 0.00 0.00 0.00 77 1012.1
20260507053346 61 318 2.0 6.0 0.00 0.00 0.00 79 1012.1
20260507052336 61 319 1.0 6.0 0.00 0.00 0.00 77 1012.0
20260507051336 61 344 1.0 5.0 0.00 0.00 0.00 77 1011.8
20260507050352 61 341 1.0 5.0 0.00 0.00 0.00 77 1011.7
20260507045336 61 268 3.0 8.0 0.00 0.00 0.00 77 1011.7
20260507044336 61 326 1.0 8.0 0.00 0.00 0.00 77 1011.7
20260507043352 61 325 1.0 3.0 0.00 0.00 0.00 78 1011.6
20260507042341 61 344 0.0 4.0 0.00 0.00 0.00 77 1011.7
20260507041339 61 322 1.0 4.0 0.00 0.00 0.00 77 1011.6
20260507040339 61 303 0.0 3.0 0.00 0.00 0.00 77 1011.5
20260507035353 61 327 1.0 3.0 0.00 0.00 0.00 77 1011.4
20260507034339 61 348 0.0 4.0 0.00 0.00 0.00 77 1011.4
20260507033336 61 15 0.0 2.0 0.00 0.00 0.00 78 1011.4
20260507032346 61 355 1.0 2.0 0.00 0.00 0.00 78 1011.5
20260507031346 61 355 0.0 0.0 0.00 0.00 0.00 78 1011.4
20260507030335 61 344 0.0 3.0 0.00 0.00 0.00 79 1011.6
20260507025416 61 333 0.0 2.0 0.00 0.00 0.00 79 1011.6
20260507024346 61 290 1.0 2.0 0.00 0.00 0.00 79 1011.7
20260507023406 61 5 0.0 2.0 0.00 0.00 0.00 78 1011.6
20260507022345 62 347 0.0 3.0 0.00 0.00 0.00 78 1011.8
20260507021331 62 323 2.0 4.0 0.00 0.00 0.00 78 1011.9
20260507020350 62 319 1.0 4.0 0.00 0.00 0.00 78 1012.0
20260507015331 62 94 1.0 5.0 0.00 0.00 0.00 78 1011.9
20260507014345 62 317 0.0 5.0 0.00 0.00 0.00 77 1012.1
20260507013345 62 310 1.0 8.0 0.00 0.00 0.00 77 1012.0
20260507012337 62 15 2.0 5.0 0.00 0.00 0.00 77 1011.9
20260507011355 62 355 2.0 5.0 0.00 0.00 0.00 77 1012.0
20260507010333 62 336 2.0 5.0 0.00 0.00 0.00 78 1012.0
20260507005401 62 310 0.0 3.0 0.00 0.00 0.00 78 1012.0
20260507004331 63 311 1.0 5.0 0.00 0.00 0.00 78 1012.0
20260507003356 63 315 2.0 5.0 0.00 0.00 0.00 78 1012.1
20260507002406 63 5 0.0 4.0 0.00 0.00 0.00 78 1012.1
20260507001344 63 22 2.0 4.0 0.00 0.00 0.00 78 1012.2
20260507000343 63 345 1.0 5.0 0.00 0.00 0.00 78 1012.3
20260506235335 63 323 1.0 7.0 0.00 0.00 0.00 78 1012.5
20260506234342 63 5 1.0 4.0 0.00 0.00 0.00 78 1012.7
20260506233342 63 21 1.0 5.0 0.00 0.00 0.00 78 1012.6
20260506232333 63 254 0.0 3.0 0.00 0.00 0.00 78 1012.6
20260506231333 63 348 1.0 5.0 0.00 0.00 0.00 78 1012.7
20260506230352 63 360 0.0 3.0 0.00 0.00 0.00 78 1012.6
20260506225334 63 360 2.0 5.0 0.00 0.00 0.00 78 1012.9
20260506224334 63 355 2.0 4.0 0.00 0.00 0.00 79 1012.7
20260506223350 63 5 1.0 4.0 0.00 0.00 0.00 79 1012.6
20260506222336 64 26 2.0 5.0 0.00 0.00 0.00 79 1012.5
20260506221335 64 355 0.0 3.0 0.00 0.00 0.00 79 1012.6
20260506220337 64 59 1.0 4.0 0.00 0.00 0.00 79 1012.7
20260506215349 64 25 1.0 3.0 0.00 0.00 0.00 79 1012.8
20260506214347 64 21 2.0 5.0 0.00 0.00 0.00 80 1012.8
20260506213406 64 25 2.0 4.0 0.00 0.00 0.00 80 1013.1
20260506212404 64 30 0.0 1.0 0.00 0.00 0.00 80 1013.2
20260506211332 64 17 1.0 3.0 0.00 0.00 0.00 80 1013.1
20260506210331 64 26 0.0 4.0 0.00 0.00 0.00 80 1013.0
20260506205356 64 84 1.0 3.0 0.00 0.00 0.00 80 1012.9
20260506204354 64 85 2.0 4.0 0.00 0.00 0.00 80 1012.8
20260506203347 64 78 2.0 4.0 0.00 0.00 0.00 79 1012.8
20260506202331 64 86 2.0 7.0 0.00 0.00 0.00 79 1012.7
20260506201345 64 80 1.0 4.0 0.00 0.00 0.00 79 1012.6
20260506200344 64 87 2.0 5.0 0.00 0.00 0.00 79 1012.5
20260506195357 64 69 2.0 6.0 0.00 0.00 0.00 78 1012.4
20260506194345 64 71 4.0 7.0 0.00 0.00 0.00 78 1012.1
20260506193359 64 51 3.0 8.0 0.00 0.00 0.00 78 1012.1
20260506192334 64 67 4.0 6.0 0.00 0.00 0.00 78 1012.0
20260506191336 64 102 4.0 9.0 0.00 0.00 0.00 78 1012.0
20260506190332 64 59 5.0 10.0 0.00 0.00 0.00 77 1012.0
20260506185338 65 87 4.0 10.0 0.00 0.00 0.00 76 1011.8
20260506184358 65 83 4.0 9.0 0.00 0.00 0.00 76 1011.7
20260506183418 65 78 4.0 9.0 0.00 0.00 0.00 76 1011.7
20260506182404 65 94 8.0 12.0 0.00 0.00 0.00 75 1011.6
20260506181343 65 88 7.0 12.0 0.00 0.00 0.00 75 1011.6
20260506180340 65 76 8.0 15.0 0.00 0.00 0.00 74 1011.5
20260506175354 65 78 8.0 15.0 0.00 0.00 0.00 73 1011.6
20260506174346 66 96 7.0 19.0 0.00 0.00 0.00 74 1011.4
20260506173344 66 98 7.0 19.0 0.00 0.00 0.00 73 1011.6
20260506172334 66 132 6.0 19.0 0.00 0.00 0.00 73 1011.6
20260506171332 66 78 7.0 19.0 0.00 0.00 0.00 74 1011.5
20260506170341 67 63 5.0 19.0 0.00 0.00 0.00 73 1011.2
20260506165334 67 79 6.0 19.0 0.00 0.00 0.00 73 1011.4
20260506164348 67 96 6.0 19.0 0.00 0.00 0.00 72 1011.3
20260506163343 67 74 8.0 19.0 0.00 0.00 0.00 71 1011.3
20260506162334 67 87 9.0 19.0 0.00 0.00 0.00 70 1011.3
20260506161333 68 58 9.0 19.0 0.00 0.00 0.00 69 1011.3
20260506160352 68 43 10.0 19.0 0.00 0.00 0.00 68 1011.3
20260506155336 69 86 11.0 19.0 0.00 0.00 0.00 67 1011.0
20260506154336 69 136 7.0 19.0 0.00 0.00 0.00 66 1011.0
20260506153346 69 118 11.0 19.0 0.00 0.00 0.00 66 1011.1
20260506152334 69 94 9.0 19.0 0.00 0.00 0.00 65 1011.0
20260506151348 69 44 9.0 19.0 0.00 0.00 0.00 66 1011.2
20260506150403 69 45 9.0 19.0 0.00 0.00 0.00 66 1011.1
20260506145354 70 79 8.0 19.0 0.00 0.00 0.00 65 1011.3
20260506144345 70 51 9.0 19.0 0.00 0.00 0.00 65 1011.3
20260506143337 70 95 10.0 19.0 0.00 0.00 0.00 65 1011.6
20260506142356 70 98 9.0 19.0 0.00 0.00 0.00 65 1011.7
20260506141334 69 69 7.0 19.0 0.00 0.00 0.00 68 1011.5
20260506140334 70 57 7.0 19.0 0.00 0.00 0.00 66 1011.8
20260506135343 69 122 7.0 19.0 0.00 0.00 0.00 66 1011.7
20260506134334 69 78 8.0 19.0 0.00 0.00 0.00 66 1011.8